Total_Precipitation_Accumulation
0.02 0.01 0.01 0.02 0.02 0.05 0.07 0.11 0.12 0.18 0.21 0.13 0.10 0.08 0.11 0.16 0.16 0.20 0.16 0.11 0.08 0.09 0.19 0.25 0.22 0.20 0.18 0.17 0.16 0.14 0.11 0.08 0.10 0.16 0.25 0.30 0.27 0.22 0.17 0.13 0.12 0.09 0.06
0.02 0.02 0.02 0.04 0.04 0.05 0.05 0.09 0.13 0.22 0.26 0.29 0.24 0.13 0.09 0.09 0.11 0.17 0.14 0.10 0.05 0.05 0.08 0.13 0.16 0.17 0.16 0.15 0.12 0.09 0.06 0.06 0.06 0.07 0.10 0.18 0.22 0.20 0.15 0.12 0.10 0.07 0.06
0.02 0.04 0.04 0.07 0.10 0.12 0.15 0.15 0.23 0.29 0.31 0.41 0.29 0.19 0.09 0.07 0.07 0.07 0.09 0.08 0.06 0.06 0.05 0.07 0.09 0.12 0.14 0.15 0.13 0.09 0.05 0.04 0.04 0.05 0.06 0.09 0.14 0.15 0.12 0.10 0.09 0.08 0.08
0.07 0.16 0.16 0.17 0.31 0.28 0.27 0.35 0.49 0.46 0.48 0.48 0.36 0.22 0.10 0.08 0.05 0.04 0.04 0.06 0.09 0.07 0.04 0.06 0.08 0.10 0.13 0.16 0.16 0.16 0.11 0.09 0.06 0.07 0.08 0.10 0.16 0.17 0.12 0.09 0.08 0.06 0.07
0.21 0.34 0.36 0.47 0.54 0.49 0.50 0.51 0.64 0.59 0.49 0.45 0.40 0.29 0.13 0.09 0.05 0.04 0.05 0.04 0.04 0.05 0.06 0.07 0.05 0.07 0.14 0.24 0.26 0.23 0.18 0.15 0.10 0.10 0.12 0.14 0.21 0.22 0.13 0.09 0.09 0.09 0.08
0.39 0.57 0.58 0.65 0.70 0.71 0.69 0.67 0.60 0.62 0.53 0.49 0.48 0.39 0.18 0.08 0.06 0.04 0.04 0.04 0.03 0.03 0.03 0.06 0.10 0.09 0.15 0.29 0.30 0.31 0.29 0.21 0.15 0.13 0.15 0.18 0.25 0.28 0.16 0.11 0.11 0.11 0.12
0.58 0.79 0.76 0.80 0.79 0.75 0.75 0.77 0.66 0.55 0.42 0.49 0.51 0.39 0.16 0.09 0.12 0.05 0.04 0.04 0.05 0.04 0.04 0.07 0.12 0.15 0.20 0.23 0.29 0.30 0.30 0.27 0.21 0.17 0.18 0.20 0.26 0.35 0.24 0.18 0.18 0.14 0.15
0.86 0.92 0.94 0.93 0.89 0.86 0.76 0.67 0.65 0.55 0.42 0.44 0.50 0.50 0.23 0.14 0.14 0.10 0.12 0.19 0.17 0.12 0.11 0.12 0.11 0.19 0.21 0.24 0.28 0.20 0.21 0.29 0.31 0.29 0.26 0.20 0.21 0.31 0.31 0.31 0.32 0.30 0.34
1.27 1.24 1.13 0.97 0.82 0.75 0.67 0.65 0.65 0.60 0.51 0.45 0.53 0.60 0.41 0.26 0.20 0.12 0.17 0.23 0.26 0.25 0.23 0.22 0.19 0.20 0.21 0.26 0.36 0.39 0.22 0.24 0.33 0.40 0.39 0.28 0.19 0.25 0.32 0.37 0.42 0.44 0.48
1.17 1.02 0.89 0.82 0.72 0.69 0.60 0.55 0.55 0.52 0.46 0.46 0.50 0.55 0.61 0.61 0.55 0.26 0.13 0.15 0.23 0.29 0.33 0.27 0.19 0.19 0.23 0.28 0.38 0.59 0.44 0.27 0.26 0.37 0.41 0.34 0.26 0.24 0.26 0.30 0.40 0.46 0.45
0.85 0.72 0.65 0.62 0.57 0.56 0.49 0.46 0.44 0.41 0.41 0.42 0.49 0.57 0.64 0.72 0.79 0.68 0.39 0.33 0.36 0.36 0.36 0.26 0.21 0.22 0.23 0.30 0.39 0.46 0.55 0.47 0.39 0.31 0.29 0.32 0.32 0.28 0.30 0.41 0.50 0.59 0.59
0.50 0.40 0.37 0.39 0.45 0.50 0.45 0.41 0.38 0.37 0.40 0.47 0.51 0.55 0.60 0.62 0.70 0.78 0.60 0.47 0.38 0.33 0.32 0.28 0.27 0.31 0.30 0.32 0.39 0.49 0.49 0.38 0.32 0.31 0.28 0.27 0.28 0.28 0.29 0.38 0.53 0.63 0.69
0.37 0.31 0.27 0.29 0.35 0.42 0.38 0.33 0.33 0.39 0.45 0.49 0.52 0.55 0.61 0.63 0.66 0.74 0.71 0.63 0.51 0.43 0.38 0.35 0.27 0.22 0.18 0.20 0.29 0.29 0.23 0.20 0.19 0.20 0.20 0.19 0.20 0.22 0.27 0.34 0.44 0.52 0.58
0.35 0.34 0.30 0.30 0.31 0.35 0.34 0.33 0.30 0.35 0.41 0.44 0.42 0.49 0.59 0.64 0.70 0.81 0.82 0.74 0.62 0.52 0.43 0.35 0.24 0.18 0.15 0.17 0.18 0.13 0.14 0.12 0.08 0.08 0.09 0.10 0.12 0.17 0.26 0.29 0.32 0.39 0.42
0.30 0.34 0.33 0.34 0.38 0.42 0.44 0.46 0.47 0.50 0.58 0.61 0.61 0.64 0.67 0.64 0.61 0.65 0.67 0.64 0.60 0.48 0.33 0.23 0.19 0.19 0.16 0.19 0.16 0.14 0.24 0.14 0.05 0.04 0.05 0.05 0.09 0.16 0.18 0.16 0.18 0.23 0.28
0.25 0.31 0.37 0.39 0.40 0.40 0.42 0.50 0.67 0.78 0.81 0.79 0.76 0.78 0.78 0.71 0.65 0.63 0.55 0.51 0.53 0.45 0.27 0.18 0.19 0.20 0.18 0.17 0.15 0.15 0.17 0.11 0.06 0.04 0.03 0.04 0.06 0.09 0.09 0.10 0.13 0.14 0.17
0.25 0.28 0.34 0.38 0.40 0.41 0.41 0.44 0.55 0.67 0.71 0.67 0.63 0.65 0.62 0.53 0.45 0.40 0.36 0.37 0.40 0.37 0.27 0.22 0.24 0.22 0.20 0.23 0.25 0.19 0.16 0.13 0.12 0.07 0.03 0.03 0.04 0.05 0.06 0.09 0.12 0.14 0.17
0.25 0.25 0.26 0.29 0.31 0.35 0.38 0.45 0.53 0.55 0.54 0.49 0.40 0.34 0.28 0.20 0.17 0.14 0.15 0.17 0.19 0.24 0.27 0.27 0.33 0.30 0.26 0.28 0.34 0.32 0.23 0.17 0.17 0.15 0.10 0.07 0.05 0.05 0.06 0.08 0.13 0.18 0.22
0.19 0.19 0.19 0.23 0.30 0.40 0.47 0.50 0.50 0.46 0.39 0.33 0.28 0.22 0.14 0.08 0.05 0.03 0.03 0.03 0.04 0.08 0.17 0.23 0.30 0.32 0.28 0.26 0.30 0.35 0.37 0.31 0.24 0.19 0.16 0.13 0.10 0.08 0.08 0.08 0.12 0.20 0.26
0.13 0.15 0.19 0.24 0.32 0.40 0.46 0.47 0.42 0.36 0.27 0.19 0.14 0.10 0.06 0.03 0.02 0.01 0.01 0.01 0.02 0.08 0.17 0.22 0.27 0.30 0.31 0.26 0.27 0.34 0.46 0.45 0.38 0.31 0.26 0.22 0.21 0.18 0.14 0.12 0.12 0.15 0.26
0.14 0.16 0.19 0.23 0.25 0.28 0.31 0.25 0.20 0.17 0.11 0.06 0.04 0.02 0.02 0.01 0.01 0.00 0.00 0.00 0.01 0.06 0.11 0.13 0.16 0.22 0.28 0.31 0.30 0.35 0.50 0.56 0.53 0.44 0.37 0.30 0.27 0.24 0.21 0.17 0.14 0.14 0.21
0.10 0.12 0.15 0.19 0.17 0.17 0.23 0.15 0.07 0.05 0.04 0.03 0.02 0.01 0.01 0.01 0.00 0.00 0.00 0.00 0.00 0.01 0.03 0.06 0.08 0.14 0.22 0.31 0.40 0.44 0.50 0.53 0.55 0.55 0.51 0.46 0.40 0.37 0.36 0.31 0.21 0.17 0.17
0.06 0.06 0.07 0.05 0.05 0.05 0.09 0.06 0.02 0.02 0.03 0.02 0.01 0.00 0.00 0.00 0.00 0.01 0.01 0.00 0.00 0.00 0.01 0.03 0.03 0.05 0.07 0.11 0.20 0.31 0.48 0.66 0.77 0.75 0.73 0.79 0.66 0.55 0.50 0.42 0.25 0.17 0.16
0.05 0.03 0.02 0.01 0.01 0.01 0.02 0.02 0.01 0.01 0.01 0.01 0.00 0.00 0.00 0.00 0.00 0.00 0.01 0.01 0.00 0.00 0.00 0.01 0.01 0.01 0.01 0.03 0.07 0.12 0.22 0.44 0.69 0.82 0.83 0.87 0.86 0.79 0.68 0.57 0.40 0.25 0.19
0.06 0.04 0.02 0.00 0.00 0.00 0.00 0.00 0.00 0.01 0.00 0.00 0.00 0.00 0.00 0.00 0.00 0.00 0.01 0.02 0.02 0.01 0.00 0.00 0.00 0.00 0.00 0.00 0.01 0.03 0.04 0.10 0.24 0.39 0.58 0.78 0.84 0.82 0.79 0.70 0.53 0.34 0.22
0.07 0.04 0.02 0.01 0.00 0.00 0.00 0.00 0.00 0.00 0.01 0.00 0.00 0.00 0.00 0.00 0.00 0.00 0.01 0.01 0.01 0.01 0.01 0.00 0.00 0.00 0.01 0.00 0.00 0.01 0.01 0.02 0.06 0.11 0.15 0.30 0.52 0.66 0.79 0.80 0.71 0.57 0.42